[Iaude] MPEC X80: 2022 DY29 [a=2.50,e=0.62,i=4.1,H=29.7]

mpec at marsden.cfa.harvard.edu mpec at marsden.cfa.harvard.edu
Tue Dec 5 13:50:17 EST 2023


M.P.E.C. 2023-X80                              Issued 2023 December 5, 18:48 UT

     The Minor Planet Electronic Circulars contain information on unusual
         minor planets, routine data on comets and natural satellites,
         and occasional editorial announcements.  They are published
    on behalf of Division F of the International Astronomical Union by the
          Minor Planet Center, Smithsonian Astrophysical Observatory,
                          Cambridge, MA 02138, U.S.A.
			  
             Prepared using the Tamkin Foundation Computer Network

                              MPC at CFA.HARVARD.EDU
            URL https://www.minorplanetcenter.net/    ISSN 1523-6714

                                   2022 DY29                                    


Observations:
     K22D29Y* C2022 02 27.49925907 09 55.805+12 54 29.59         18.3 GVEX080P07
     K22D29Y  C2022 02 27.53911807 37 22.810+13 40 31.87         17.4 GVEX080P07
     K22D29Y  C2022 02 27.58994208 12 40.567+14 21 20.16         17.7 GVEX080P07
     K22D29Y  C2022 02 27.63739108 44 33.475+14 39 44.46         17.1 GVEX080P07
     K22D29Y  C2022 02 27.66339409 01 09.722+14 42 15.34         17.5 GVEX080P07
     K22D29Y  C2022 02 27.66570709 02 36.142+14 42 14.36         17.5 GVEX080P07
     K22D29Y  C2022 02 27.70510309 26 06.605+14 36 50.98         17.3 GVEX080P07
     K22D29Y  C2022 02 27.70519609 26 09.734+14 36 49.61         17.2 GVEX080P07
     K22D29Y  C2022 02 28.42639412 28 05.571+09 03 49.94         19.02GVEX080F52
     K22D29Y  C2022 02 28.42731212 28 09.794+09 03 37.76         19.37GVEX080F52
     K22D29Y  C2022 03 03.51369013 30 20.228+05 52 18.49         22.87GVEX080F52
     K22D29Y  C2022 03 03.52601313 30 21.830+05 52 07.84         22.64GVEX080F52
     K22D29Y  C2022 03 03.55077713 30 24.990+05 51 45.44         22.51GVEX080F52

Observer details:
F52 Pan-STARRS 2, Haleakala.  Observers J. Herman, T. Lowe, P. Minguez, A.
    Schultz, I. Smith.  Measurers K. Chambers, T. de Boer, J. Fairlamb, H.
    Gao, M. Huber, C.-C. Lin, E. Magnier, Y. Ramanjooloo, R. Wainscoat, R.
    Weryk.  1.8-m Ritchey-Chretien + CCD.
P07 Space Surveillance Telescope, HEH Station.  Observers M. Blythe, R.
    Brungard, P. Festler, T. McVey, J. Paige, G. Spitz, L. Banks.  Measurers
    M. Cornell, M. Kotson, A. Lue, R. Rios, J. Ruprecht, J. Vaillancourt, J.
    Varey, H. Viggh, D. Woods, R. Monardez.  3.5-m f/1. Reflector + CCD.

Orbital elements:
2022 DY29                                                Earth MOID = 0.0000 AU
Epoch 2023 Sept. 13.0 TT = JDT 2460200.5                Veres                   
M 146.05989              (2000.0)            P               Q                  
n   0.24987882     Peri.  330.51545     -0.63327326     -0.77349799             
a   2.4964129      Node   158.74309     +0.72327196     -0.60335852             
e   0.6224136      Incl.    4.08138     +0.27539545     -0.19406021             
P   3.94           H   29.77          G   0.15           U   7                  
Residuals in seconds of arc
220227 P07  0.5+  0.3+    220227 P07  0.4-  0.1+    220303 F52  0.3-  0.1-
220227 P07  0.1+  0.0     220227 P07  0.2+  0.1+    220303 F52  0.2-  0.1+
220227 P07  0.3+  0.3+    220227 P07  0.4-  0.1+    220303 F52  0.4+  0.0
220227 P07  0.6-  0.2+    220228 F52  0.1+  0.1-
220227 P07  0.1-  0.4+    220228 F52  0.1-  0.1+

Ephemeris:
2022 DY29                a,e,i = 2.50, 0.62, 4                   q = 0.9426
Date    TT    R. A. (2000) Decl.     Delta      r    Elong.  Phase     V
2023 11 05    19 24 39.3 -19 45 32   4.2777  4.0116    67.9    13.2
...
2023 11 20    19 36 04.2 -19 30 28   4.5002  4.0243    55.5    11.7
...
2023 11 28    19 42 54.3 -19 18 39   4.6068  4.0301    49.1    10.7
...
2023 12 04    19 48 18.5 -19 08 05   4.6803  4.0339    44.3     9.8
2023 12 05    19 49 13.8 -19 06 11   4.6920  4.0345    43.5     9.7
2023 12 06    19 50 09.4 -19 04 14   4.7035  4.0351    42.7     9.5
...
2023 12 12    19 55 49.5 -18 51 43   4.7689  4.0384    38.0     8.6
...
2023 12 20    20 03 38.2 -18 32 47   4.8459  4.0422    31.7     7.4
...
2024 01 04    20 18 50.1 -17 50 43   4.9563  4.0473    20.1     4.8

M. P. C. Staff               (C) Copyright 2023 MPC           M.P.E.C. 2023-X80





More information about the Iaude mailing list